www.pogodaiklimat.ru

Погода и климат >> Архив погоды >> Ирак >> Эль-Халис


ПОГОДА в Эль-Халисе

  • Прогноз погоды в Эль-Халисе
  • Монитор погоды в Эль-Халисе

АРХИВ ПОГОДЫ в Эль-Халисе

Время (UTC), дата Ветер
(напр.,м/с)
 
Видим.   Явления Облачность Т
(С)
Тd
(С)
f
(%)
Тe
(С)
Тes
(С)
Комфортность P
(гПа)
Po
(гПа)
Тmin
(С)
Tmax
(С)
R
(мм)
R24
(мм)
S
(см)
06 15.04 ЮЗ 2 10 км ясно +23.8 +10.4 43 +25 +35 комфорт 1012.0 1006.9 +13.2
09 15.04 СЗ 2 8000 м пыль ясно +27.4 +11.3 37 +28 +47 жарко 1011.8 1006.8
12 15.04 СЗ 2 8000 м пыль 4/0
[Ci sp]
+30.0 +9.3 28 +30 +39 жарко 1010.1 1005.1
15 15.04 С 3 8000 м пыль 6/0
[Cs]
+27.3 +9.7 33 +28 +28 жарко 1010.4 1005.4
18 15.04 СЗ 2 8000 м пыль 6/0
[Cs]
+22.6 +12.8 54 +25 +25 комфорт 1012.4 1007.3 +30.2
06 16.04 С 2 10 км 9/0
[As op]
+21.5 +16.2 72 +25 +28 комфорт 1012.4 1007.2 +16.4
09 16.04 ЮЗ 2 8000 м пыль 6/0
[Cs]
+26.2 +13.3 45 +28 +45 жарко 1011.0 1005.9
12 16.04 ЮЗ 2 10 км 4/0
[Ci sp]
+29.2 +12.6 36 +30 +40 жарко 1008.6 1003.6
15 16.04 В 2 10 км 3/0
[Ac trans]
+26.4 +13.1 44 +28 +28 жарко 1006.4 1001.4
18 16.04 ЮВ 5 10 км 4/0
[Ci sp]
+24.8 +9.2 37 +25 +25 комфорт 1004.7 999.6 +29.8
06 17.04 СЗ 5 10 км ясно +19.0 +9.5 54 +19 +25 1010.6 1005.4 +14.6
09 17.04 СЗ 6 10 км ясно +24.4 +8.3 36 +25 +32 комфорт 1012.0 1006.9
12 17.04 СЗ 5 10 км 3/3 900 м
[Cu med, cong]
+25.6 +7.5 32 +26 +30 жарко 1012.0 1006.9
15 17.04 СЗ 3 10 км 4/0
[Ci sp]
+22.4 +7.9 39 +23 +24 комфорт 1011.7 1006.6
18 17.04 С 2 10 км ясно +19.2 +7.9 48 +20 +20 1012.9 1007.7 +25.8
12 18.04 СВ 2 10 км слаб. дождь 10/10 900 м
[Cu Sc]
+23.0 +8.2 39 +24 +24 комфорт 1012.1 1007.0
15 18.04 С 3 10 км 9/9 900 м
[Cu Sc]
+21.2 +9.0 46 +22 +22 комфорт 1011.8 1006.6
18 18.04 С 4 10 км 4/0
[Ac trans]
+16.0 +12.0 77 +15 +15 1012.4 1007.1 +24.8 1
12 19.04 З 5 10 км 4/4 900 м
[Cu med, cong]
+27.0 +8.7 32 +27 +31 жарко 1009.5 1004.5
15 19.04 СЗ 2 10 км 3/3 900 м
[Cu med, cong]
+25.0 +8.2 34 +25 +25 комфорт 1008.5 1003.4
09 20.04 СЗ 4 10 км 6/6 900 м
[Cu med, cong]
+20.6 +8.8 47 +22 +27 комфорт 1014.5 1009.3
12 20.04 СЗ 4 10 км 5/5 900 м
[Cu med, cong]
+23.6 +7.6 36 +24 +28 комфорт 1013.1 1008.0
15 20.04 СЗ 3 10 км 3/3 900 м
[Cu med, cong]
+21.2 +7.2 40 +22 +22 комфорт 1012.1 1006.9
18 20.04 С 3 10 км ясно +16.0 +8.5 61 +16 +16 1013.2 1007.9 +23.8
06 21.04 Ю 7 10 км ясно +21.2 +4.3 33 +21 +24 комфорт 1011.0 1005.8 +11.2
09 21.04 Ю 5 10 км 3/3 900 м
[Cu hum]
+25.4 +2.1 22 +24 +31 комфорт 1009.7 1004.6
12 21.04 Ю 3 10 км 3/3 900 м
[Cu hum]
+28.0 -1.3 15 +25 +32 комфорт 1007.3 1002.3
15 21.04 Ю 2 10 км 8/8 1000 м
[Sc]
+23.2 +0.5 22 +22 +22 комфорт 1006.1 1001.0
18 21.04 ЮВ 4 10 км 8/6 1000 м
[Sc]
+18.8 +6.3 44 +19 +19 1006.3 1001.1 +28.2

 

Местоположение метеостанции Эль-Халис (Ирак): широта 33.83 долгота 44.53 высота над уровнем моря 44 м.

В архиве по умолчанию представлена погода в Эль-Халисе за последнюю неделю. Архивные данные за месяц целиком и за предыдущие месяцы, начиная с января 2011 года, Вы можете получить, выбрав интересующий диапазон дат из раскрывающегося списка и нажав кнопку "Ввод!".


*Определитесь, кто Вы:
робот инопланетянин человек

Внимание! Время в таблицах - всемирное. Для получения местного времени необходимо прибавить поправку, которая равна 3 ч.

Смотрите также архив погоды в соседних городах и на ближайших метеорологических станциях:

Погода в Айн Аль-Тамаре (Ирак) (36 км)
Погода в Багдаде (Ирак) (72 км)
Погода в Хите (Ирак) (76 км)
Погода в Ханакине (Ирак) (98 км)
Погода в Тикрите (Ирак) (112 км)
Погода в Эль-Азизии (Ирак) (113 км)
Погода в Тузе (Ирак) (117 км)
Погода в Эр-Рамади (Ирак) (120 км)
Погода в Кербеле (Ирак) (143 км)
Погода в Хелле (Ирак) (154 км)

Пояснения к столбцам:

Ветер - указаны скорость ветра в м/с - средняя за 10 мин, порывы в срок и между сроками (в фигурных скобках) и направление, откуда дует ветер: С - северный, СВ - северо-восточный, В - восточный, ЮВ - юго-восточный, Ю - южный, ЮЗ - юго-западный, З - западный, СЗ - северо-западный.
Видимость - горизонтальная дальность видимости в метрах или километрах. При видимости от 1 до 10 км при отсутствии осадков обычно наблюдается дымка, при ухудшении видимости до 1 км и менее - туман. В сухую погоду видимость может ухудшаться дымом, пылью или мглою.
Явления - указаны атмосферные явления, наблюдавшиеся в срок или в последний час перед сроком; фигурными скобками обозначены явления, наблюдавшиеся между сроками (за 1-3 часа до срока); квадратными скобками обозначены град или гололедные отложения с указанием их диаметра в мм.
Облачность - указаны через наклонную черту общая и нижняя облачность в баллах и высота нижней границы облаков в метрах; квадратными скобками обозначены формы облаков: Ci - перистые, Cs - перисто-слоистые, Cc - перисто-кучевые, Ac - высококучевые, As - высокослоистые, Sc - слоисто-кучевые, Ns - слоисто-дождевые, Cu - кучевые, Cb - кучево-дождевые. Подробнее классификацию облаков см. в Атласе облаков (PDF).
T - Температура воздуха - температура, измеренная на высоте 2 м над землей.
Td - Температура точки росы - температура, при понижении до которой содержащийся в воздухе водяной пар достигнет насыщения.
f - Относительная влажность воздуха - влажноcть воздуха, измеренная на высоте 2 м над землей.
Te - Эффективная температура - температура, которую ощущает одетый по сезону человек в тени. Характеристика душности погоды. При расчете учитывается влияние влажности воздуха и скорости ветра на теплоощущения человека.
Tes - Эффективная температура на солнце - температура, которую ощущает человек, с поправкой на солнечный нагрев. Характеристика знойности погоды. Зависит от высоты солнца над горизонтом, облачности и скорости ветра. Ночью, в пасмурную погоду, а также при ветре 12 м/с и более поправка равна нулю.
P - Атмосферное давление - приведенное к уровню моря атмосферное давление.
Po - Атмосферное давление - измеренное на уровне метеостанции атмосферное давление.
Tmin - Минимальная температура - минимум температуры воздуха на высоте 2 м над землей.
Tmax - Максимальная температура - максимум температуры воздуха на высоте 2 м над землей.
R - Количество осадков - Количество выпавших осадков за период времени, мм. При наведении курсора мыши на число - период времени, за который выпало указанное количество осадков.
R24 - Количество осадков - Количество выпавших осадков за 24 часа, мм.
S - Снежный покров - Высота снежного покрова, см. При наведении курсора мыши на число - состояние снежного покрова и степень покрытия местности в баллах.